[[[{"header":{"parameterUnit":"kt","parameterCategory":2,"dx":1,"dy":1,"la1":30.253999710083008,"la2":30.299108505249023,"lo1":-89.0895004272461,"lo2":-89.04439544677734,"nx":28,"ny":28,"refTime":"2022-10-18T21:00:00:Z","depth":0,"parameterNumber":1,"parameterNumberName":"U-component_of_WINDS"},"data":[2.0562,2.0552,2.054,2.0523,2.0509,2.0495,2.0486,2.0474,2.046,2.0442,2.0429,2.0415,2.0396,2.0378,2.0363,2.0357,2.0351,2.0357,2.0349,2.0332,2.0329,2.0326,2.0328,2.0356,2.0356,2.0367,2.0367,2.0367,2.0556,2.0543,2.053,2.0509,2.0498,2.0486,2.0468,2.0459,2.0447,2.043,2.0416,2.0398,2.0382,2.0359,2.0341,2.0336,2.0328,2.0332,2.0331,2.0328,2.0311,2.0313,2.0339,2.0339,2.0339,2.0339,2.0339,2.0339,2.0542,2.0536,2.0516,2.0501,2.0487,2.0473,2.0465,2.0448,2.0434,2.0414,2.0401,2.0385,2.0365,2.0335,2.0321,2.0309,2.0301,2.0301,2.0301,2.0301,2.0303,2.0292,2.0305,2.0305,2.0305,2.0305,2.0305,0,2.0527,2.0518,2.0503,2.0486,2.0474,2.0459,2.0443,2.0437,2.0409,2.0399,2.0383,2.0371,2.0347,2.0329,2.0308,2.0293,2.0276,2.0273,2.0272,2.0278,2.0288,2.0283,2.0255,2.0271,2.0271,2.0271,2.0271,2.0271,2.0512,2.0505,2.0477,2.0469,2.0456,2.0443,2.0432,2.0408,2.0397,2.0373,2.0367,2.0349,2.0333,2.0308,2.0285,2.0266,2.0257,2.0265,2.0253,2.0261,2.0257,2.0257,2.0257,2.0267,2.0267,2.0268,2.0268,0,2.0505,2.0483,2.0468,2.044,2.0432,2.0426,2.0402,2.0393,2.0376,2.0362,2.0358,2.0329,2.0312,2.0288,2.0262,2.025,2.024,2.0232,2.0249,2.0245,2.025,2.025,2.0269,2.027,2.0241,2.0241,2.0241,0,2.0482,2.0474,2.0442,2.0434,2.0424,2.0399,2.039,2.0374,2.0354,2.0343,2.032,2.031,2.0279,2.0265,2.0246,2.0234,2.0229,2.0218,2.0213,2.022,2.0221,2.0211,2.0209,2.0201,2.0201,2.0201,2.0201,0,2.0472,2.0444,2.0432,2.0421,2.0388,2.0383,2.0369,2.0345,2.0334,2.0315,2.0307,2.0287,2.0275,2.026,2.0235,2.0228,2.0219,2.0205,2.0208,2.0209,2.0205,2.0205,2.0231,2.0201,2.0201,2.0201,2.0201,0,2.0449,2.0432,2.0416,2.0388,2.0382,2.0373,2.0351,2.0337,2.0314,2.0302,2.0286,2.0266,2.0253,2.0241,2.0222,2.022,2.021,2.0198,2.0198,2.0193,2.018,2.0197,2.0224,2.0225,2.0193,2.0193,2.0193,0,2.0445,2.0422,2.04,2.0385,2.0371,2.0346,2.0336,2.0315,2.0298,2.0283,2.0262,2.0245,2.023,2.022,2.0215,2.0192,2.0194,2.0191,2.0169,2.0169,2.0176,2.0201,2.0211,2.0221,2.0191,2.0192,2.0192,0,2.0437,2.0396,2.0394,2.0381,2.035,2.0337,2.0325,2.0301,2.0293,2.0271,2.026,2.0234,2.0222,2.0206,2.0186,2.0181,2.0192,2.0168,2.0167,2.0173,2.0188,2.0198,2.02,2.018,2.018,2.0181,2.0191,0,2.0409,2.0394,2.0389,2.0359,2.0345,2.0333,2.0305,2.0294,2.0278,2.0258,2.024,2.0213,2.0187,2.0182,2.0164,2.0161,2.0157,2.0143,2.0127,2.0144,2.0146,2.0147,2.0126,2.0126,2.0125,2.0125,0,0,2.0409,2.0386,2.0359,2.0346,2.0332,2.0304,2.0294,2.0277,2.0243,2.0234,2.0225,2.0184,2.0161,2.0142,2.0145,2.0134,2.0131,2.0125,2.0136,2.0138,2.0139,2.0142,2.0144,2.0124,2.0123,2.0123,2.0123,0,2.0393,2.0372,2.0363,2.0344,2.0316,2.0295,2.0293,2.0258,2.0244,2.0226,2.0201,2.0187,2.0152,2.0132,2.0118,2.0128,2.0108,2.0122,2.0137,2.0132,2.0134,2.0136,2.014,2.0142,2.0122,2.0122,2.0122,0,2.038,2.0355,2.0347,2.0314,2.0294,2.0278,2.0256,2.024,2.0228,2.0195,2.0176,2.0157,2.0126,2.0112,2.0104,2.0095,2.0089,2.0085,2.0087,2.0085,2.0078,2.008,2.0083,2.0052,2.0051,2.0051,0,0,2.0369,2.0354,2.0317,2.0307,2.0297,2.0265,2.0253,2.0234,2.0208,2.0198,2.0171,2.0146,2.0126,2.0113,2.0092,2.008,2.0071,2.0077,2.0081,2.0083,2.0083,2.0076,2.0079,2.0051,2.0051,2.0051,0,0,2.0363,2.0321,2.0308,2.0293,2.027,2.0232,2.0227,2.021,2.0188,2.0186,2.0151,2.0142,2.0128,2.0108,2.0107,2.0086,2.0071,2.007,2.0098,2.0102,2.0105,2.0109,2.0077,0,0,0,0,0,2.033,2.0326,2.0315,2.0308,2.0264,2.0239,2.0233,2.0205,2.0196,2.0193,2.0169,2.0148,2.0101,2.0099,2.0091,2.0093,2.0045,2.0046,2.0047,2.008,2.0084,2.0088,0,0,0,0,0,0,2.0327,2.0318,2.0315,2.0278,2.0267,2.0239,2.0218,2.021,2.0196,2.0192,2.0154,2.0147,2.0121,2.01,2.0094,2.0096,2.0079,2.0046,2.0047,2.0047,2.0082,2.0085,2.0088,0,0,0,0,0,2.0324,2.0317,2.0253,2.0278,2.0269,2.0231,2.0217,2.0211,2.0199,2.016,2.0152,2.0179,2.0122,2.0115,2.0096,2.0099,2.0083,2.0081,2.0046,2.0047,2.0048,2.0083,0,0,0,0,0,0,2.0322,2.031,2.025,2.0246,2.0276,2.0232,2.0224,2.0212,2.0167,2.016,2.0184,2.0182,2.0123,2.0117,2.0112,2.0102,2.0086,2.0084,2.0083,2.0047,2.0047,2.0048,0,0,0,0,0,0,2.0314,2.0307,2.0248,2.0248,2.0244,2.0233,2.0226,2.0205,2.0167,2.0193,2.019,2.0184,2.013,2.0118,2.0114,2.0083,2.0089,2.0087,2.0085,2.0084,2.0047,2.0048,0,0,0,0,0,0,2.0311,2.0305,2.0249,2.0246,2.0242,2.0197,2.0214,2.0169,2.0168,2.0196,2.0167,2.0167,2.0132,2.0127,2.0116,2.0086,2.0084,2.0089,2.0087,2.0086,2.0086,0,0,0,0,0,0,0,2.0308,2.0352,2.0273,2.0244,2.0241,2.0211,2.021,2.0209,2.0168,2.0168,2.0167,2.0167,2.0101,2.0098,2.0096,2.009,0,0,2.0089,2.0088,0,0,0,0,0,0,0,0,2.0354,2.0353,2.0273,2.0272,2.0271,2.0211,2.021,2.0209,2.0168,2.0168,2.0168,2.0167,2.01,2.0098,2.0096,0,0,0,0,0,0,0,0,0,0,0,0,0,0,0,2.0273,2.0272,0,2.0211,2.021,2.0209,2.0168,2.0168,2.0168,2.0167,2.0099,2.0098,2.0096,0,0,0,0,0,0,0,0,0,0,0,0,0,0,0,0,0,0,0,0,0,0,0,0,0,0,0,0,0,0,0,0,0,0,0,0,0,0,0,0,0,0,0,0,0,0,0,0,0,0,0,0,0,0,0,0,0,0,0,0,0,0,0,0,0,0,0,0,0]}],[{"header":{"parameterUnit":"kt","parameterCategory":2,"dx":1,"dy":1,"la1":30.253999710083008,"la2":30.299108505249023,"lo1":-89.0895004272461,"lo2":-89.04439544677734,"nx":28,"ny":28,"refTime":"2022-10-18T21:00:00:Z","depth":0,"parameterNumber":2,"parameterNumberName":"V-component_of_WINDS"},"data":[-17.6625,-17.6955,-17.6973,-17.7354,-17.7433,-17.7694,-17.7792,-17.7919,-17.8023,-17.8332,-17.8511,-17.8556,-17.866,-17.8873,-17.9062,-17.9076,-17.9155,-17.9261,-17.9258,-17.8777,-17.871,-17.8647,-17.8572,-17.9279,-17.928,-17.9754,-17.9759,-17.9762,-17.6271,-17.6355,-17.6563,-17.6774,-17.6951,-17.686,-17.7018,-17.717,-17.7404,-17.7534,-17.7711,-17.7981,-17.8194,-17.8263,-17.8468,-17.8616,-17.8581,-17.867,-17.8657,-17.8674,-17.8161,-17.8081,-17.8695,-17.8695,-17.8695,-17.8695,-17.8694,-17.8694,-17.563,-17.5828,-17.5966,-17.6191,-17.6301,-17.6441,-17.6629,-17.6682,-17.6881,-17.7103,-17.7078,-17.7341,-17.7469,-17.772,-17.7806,-17.8007,-17.7909,-17.8008,-17.8033,-17.8057,-17.8084,-17.7395,-17.8042,-17.804,-17.8038,-17.8037,-17.8036,0,-17.5165,-17.5167,-17.5366,-17.5572,-17.5736,-17.5895,-17.6041,-17.6158,-17.6156,-17.632,-17.6557,-17.6694,-17.6963,-17.7183,-17.7376,-17.7444,-17.7358,-17.735,-17.7418,-17.7434,-17.7424,-17.7431,-17.6591,-17.733,-17.7324,-17.732,-17.7317,-17.7314,-17.4518,-17.4747,-17.4898,-17.5035,-17.512,-17.5342,-17.5476,-17.5458,-17.56,-17.5774,-17.5945,-17.6167,-17.6343,-17.6714,-17.6763,-17.6962,-17.6921,-17.7202,-17.695,-17.6956,-17.6923,-17.6909,-17.693,-17.725,-17.7258,-17.7265,-17.727,0,-17.4152,-17.4176,-17.4534,-17.4658,-17.4696,-17.4935,-17.5038,-17.5231,-17.5258,-17.5527,-17.5588,-17.5629,-17.5858,-17.5864,-17.6124,-17.6119,-17.6503,-17.6459,-17.6459,-17.645,-17.67,-17.6676,-17.7516,-17.7624,-17.6893,-17.69,-17.6906,0,-17.3608,-17.3907,-17.3924,-17.4131,-17.4461,-17.4435,-17.4762,-17.4817,-17.4929,-17.514,-17.5046,-17.5245,-17.5219,-17.5418,-17.541,-17.5725,-17.5774,-17.5787,-17.5781,-17.5795,-17.5794,-17.5865,-17.583,-17.5761,-17.5757,-17.5753,-17.5749,0,-17.303,-17.339,-17.3725,-17.381,-17.397,-17.4127,-17.42,-17.4323,-17.4454,-17.4622,-17.4705,-17.4902,-17.5009,-17.5161,-17.515,-17.4979,-17.5535,-17.5297,-17.5548,-17.5549,-17.5669,-17.5661,-17.6407,-17.5744,-17.5743,-17.5741,-17.574,0,-17.2592,-17.277,-17.3253,-17.3383,-17.3478,-17.3697,-17.3892,-17.4081,-17.4217,-17.4228,-17.4359,-17.4295,-17.4572,-17.4335,-17.4715,-17.4495,-17.4605,-17.4643,-17.4661,-17.4683,-17.4417,-17.4835,-17.5547,-17.5621,-17.4707,-17.4699,-17.4691,0,-17.1923,-17.2417,-17.2398,-17.2856,-17.3084,-17.2964,-17.3206,-17.333,-17.3365,-17.3559,-17.3594,-17.3815,-17.364,-17.3708,-17.3896,-17.3939,-17.4226,-17.3901,-17.4174,-17.4184,-17.4141,-17.4797,-17.4901,-17.5392,-17.4581,-17.4592,-17.4601,0,-17.1407,-17.1602,-17.1685,-17.178,-17.1943,-17.2133,-17.2412,-17.2626,-17.2757,-17.2906,-17.3136,-17.3446,-17.3326,-17.3441,-17.3408,-17.3603,-17.4031,-17.3446,-17.3448,-17.355,-17.4526,-17.4624,-17.4706,-17.3965,-17.3978,-17.3989,-17.4513,0,-17.0738,-17.0987,-17.1213,-17.1426,-17.1574,-17.1861,-17.1869,-17.2022,-17.1977,-17.2006,-17.2344,-17.2444,-17.2658,-17.2752,-17.2709,-17.3156,-17.308,-17.2949,-17.2715,-17.3147,-17.3319,-17.339,-17.2458,-17.2451,-17.2445,-17.244,0,0,-17.009,-17.0448,-17.0417,-17.0688,-17.081,-17.068,-17.0985,-17.1088,-17.1298,-17.1383,-17.1254,-17.1706,-17.1792,-17.2201,-17.2336,-17.2423,-17.2501,-17.235,-17.2942,-17.2998,-17.305,-17.3234,-17.3308,-17.243,-17.2428,-17.2426,-17.2424,0,-16.9847,-16.9947,-17.0252,-17.0358,-17.0514,-17.053,-17.0604,-17.0733,-17.0765,-17.1098,-17.098,-17.1183,-17.1544,-17.165,-17.1751,-17.2302,-17.2199,-17.2367,-17.2662,-17.2884,-17.2947,-17.3004,-17.3198,-17.3269,-17.241,-17.2411,-17.2411,0,-16.9339,-16.9437,-16.9585,-16.986,-16.9959,-17.0196,-16.9955,-17.0215,-17.0389,-17.0226,-17.0557,-17.0613,-17.0754,-17.1141,-17.1314,-17.1201,-17.1924,-17.1697,-17.1733,-17.1751,-17.1966,-17.2042,-17.211,-17.1212,-17.1208,-17.1204,0,0,-16.9127,-16.9358,-16.9455,-16.9808,-16.9879,-16.9907,-17.0033,-17.0001,-17.0135,-17.0188,-17.0257,-17.0388,-17.0596,-17.0734,-17.093,-17.1355,-17.1379,-17.1549,-17.1606,-17.1652,-17.1695,-17.1922,-17.1997,-17.1189,-17.1188,-17.1188,0,0,-16.9023,-16.9151,-16.9083,-16.9494,-16.9628,-16.9742,-16.9956,-16.9873,-17.0051,-17.0018,-16.9971,-17.0004,-17.0365,-17.0423,-17.0212,-17.0846,-17.0616,-17.0666,-17.0795,-17.0866,-17.0922,-17.0899,-16.9975,0,0,0,0,0,-16.8779,-16.9135,-16.9073,-16.9143,-16.9486,-16.9778,-16.9821,-16.9793,-16.9632,-16.9801,-16.9845,-16.9727,-17.03,-17.0112,-17.0179,-17.0414,-17.0985,-17.1021,-17.1055,-17.1321,-17.1396,-17.1459,0,0,0,0,0,0,-16.8806,-16.8892,-16.9063,-16.9194,-16.927,-16.9765,-16.9484,-16.9486,-16.9613,-16.9586,-16.9723,-16.9732,-16.971,-17.0075,-17.0137,-17.036,-16.9954,-17.1,-17.103,-17.1058,-17.1347,-17.1408,-17.146,0,0,0,0,0,-16.8827,-16.8896,-16.9455,-16.9188,-16.9255,-16.9304,-16.9471,-16.947,-16.9567,-16.9635,-16.964,-16.9535,-16.9717,-16.9767,-17.0111,-17.0333,-16.9911,-16.9934,-17.1019,-17.1044,-17.1065,-17.1377,0,0,0,0,0,0,-16.8843,-16.8896,-16.9467,-16.9487,-16.9052,-16.9275,-16.9309,-16.9457,-16.9607,-16.9616,-16.9443,-16.942,-16.9727,-16.9763,-16.9802,-17.0326,-16.9876,-16.99,-16.9914,-17.1038,-17.1057,-17.1073,0,0,0,0,0,0,-16.8859,-16.8914,-16.9477,-16.9307,-16.9306,-16.9249,-16.928,-16.9567,-16.961,-16.9405,-16.9391,-16.9431,-16.9666,-16.9763,-16.9792,-17.0242,-16.985,-16.9872,-16.9888,-16.9897,-17.1053,-17.1068,0,0,0,0,0,0,-16.8881,-16.8928,-16.9301,-16.9301,-16.9299,-16.951,-16.9501,-16.9853,-16.9469,-16.94,-16.9434,-16.9417,-16.967,-16.9699,-16.9787,-17.0225,-17.0237,-16.985,-16.9866,-16.9877,-16.9884,0,0,0,0,0,0,0,-16.8899,-16.8593,-16.9355,-16.9296,-16.9294,-16.9663,-16.9668,-16.9673,-16.9466,-16.9452,-16.9437,-16.9424,-16.9722,-16.9746,-16.9771,-17.0211,0,0,-16.9848,-16.9859,0,0,0,0,0,0,0,0,-16.8572,-16.8588,-16.9356,-16.936,-16.9364,-16.9664,-16.9668,-16.9672,-16.9463,-16.9452,-16.944,-16.943,-16.9728,-16.9748,-16.9768,0,0,0,0,0,0,0,0,0,0,0,0,0,0,0,-16.9356,-16.936,0,-16.9664,-16.9668,-16.9671,-16.9462,-16.9452,-16.9443,-16.9434,-16.9734,-16.975,-16.9767,0,0,0,0,0,0,0,0,0,0,0,0,0,0,0,0,0,0,0,0,0,0,0,0,0,0,0,0,0,0,0,0,0,0,0,0,0,0,0,0,0,0,0,0,0,0,0,0,0,0,0,0,0,0,0,0,0,0,0,0,0,0,0,0,0,0,0,0,0]}]]]